Regional Weather Roundup
Issued by NWS

Home | Current Version | Previous Version | Text Only | Print | Product List | Glossary Off
Versions: 1 2 3 4 5 6 7 8 9 10 11 12 13 14 15 16 17 18 19 20 21 22 23 24 25 26 27 28 29 30 31 32 33 34 35 36 37 38 39 40 41 42 43 44 45 46 47 48 49 50

000
ASUS43 KLOT 160103
RWRIL

ILLINOIS REGIONAL WEATHER ROUNDUP
NATIONAL WEATHER SERVICE CHICAGO/ROMEOVILLE IL
700 PM CST MON JAN 15 2018

NOTE: "FAIR" INDICATES FEW OR NO CLOUDS BELOW 12,000 FEET WITH NO
SIGNIFICANT WEATHER AND/OR OBSTRUCTIONS TO VISIBILITY.

* THESE STATIONS ARE NOT UNDER NWS QUALITY CONTROL. THEY ALSO MAY NOT
  REPORT WEATHER SUCH AS PRECIPITATION OR FOG.

ILZ001-002-007-009-015-016-024-160200-
NORTHWEST ILLINOIS

CITY           SKY/WX    TMP DP  RH WIND       PRES   REMARKS
MOLINE         FAIR       4  -3  73 W18G25    30.44R WCI -16
STERLING*      FLURRIES   6   1  80 W18       30.36R WCI -13
SAVANNA*       LGT SNOW   8   2  78 W13G20    30.38R WCI  -8
$$

ILZ003-004-008-010-011-017-018-160200-
NORTH CENTRAL ILLINOIS

CITY           SKY/WX    TMP DP  RH WIND       PRES   REMARKS
ROCKFORD       LGT SNOW  12   7  80 W12       30.32R VSB 1   WCI  -2
FREEPORT*      LGT SNOW   9   5  82 W16       30.33R WCI  -8
ROCHELLE*      LGT SNOW   9   6  85 W16       30.32R WCI  -8
DE KALB*       LGT SNOW  10   7  86 W18       30.29R WCI  -8
PERU*          MOCLDY     6  -1  73 W23       30.37S WCI -15
$$

ILZ005-006-012>014-019>023-160200-
NORTHEAST ILLINOIS

CITY           SKY/WX    TMP DP  RH WIND       PRES   REMARKS
CHICAGO-OHARE  LGT SNOW  12   7  80 W13       30.27R WCI  -3
CHICAGO-MIDWAY LGT SNOW  12   6  77 W15       30.30R WCI  -4
AURORA         LGT SNOW  10   6  84 W16       30.31R FOG     WCI  -7
LANSING*       CLOUDY    11   7  86 W12       30.32R WCI  -4
JOLIET*        LGT SNOW  11   6  82 W10G16    30.34R WCI  -3
WAUKEGAN       LGT SNOW  18  12  77 VRB5      30.24R WCI  11
DUPAGE AIRPORT LGT SNOW  10   7  87 W14G22    30.28R FOG     WCI  -6
KANKAKEE*      CLOUDY     7   2  80 W18       30.37R WCI -12
WHEELING       LGT SNOW  14   9  80 W8        30.28R WCI   3
MORRIS*        CLOUDY     8   3  80 W18       30.33R WCI -10
ROMEOVILLE*    LGT SNOW   9   6  86 W14       30.32R WCI  -7
NORTHERLY ISL    N/A     14   8  77 W14         N/A  WCI  -1
$$

LMZ740>746-160200-
SOUTHERN LAKE MICHIGAN

STATION/POSITION SKY/WX   TEMP    WIND        PRES    VSBY  WAVE
                          AIR SEA DIR/SP/G                  HT/PER
                          (F)     (DEG/KT/KT) (MB)    (MI)  (FT/S)
HARRISON CRIB              14     250/ 20/ 24   N/A
BURNHAM HARBOR             14     270/ 10/ 17   N/A
CALUMET HARBOR             13     250/  7/ 13 1024.8R
BURNS HARBOR               15     230/ 13/ 17 1025.4
MICHIGAN CITY                     230/ 22/ 24   N/A
$$

ILZ025>027-034>036-040-047-049-050-058-095>099-160200-
WEST-CENTRAL ILLINOIS

CITY           SKY/WX    TMP DP  RH WIND       PRES   REMARKS
QUINCY         CLEAR      4  -5  66 NW17      30.52R WCI -16
GALESBURG*     FAIR       2  -3  79 W18G25    30.45R WCI -18
MACOMB*        CLOUDY     3  -1  82 NW22G28   30.51R HAZE    WCI -19
JACKSONVILLE*  CLEAR      5  -4  68 W16       30.50R WCI -14
PITTSFIELD*    CLEAR      7  -2  67 W6        30.52R WCI  -4
$$

ILZ028>032-037-038-041>044-048-051>054-059>061-160200-
CENTRAL ILLINOIS

CITY           SKY/WX    TMP DP  RH WIND       PRES   REMARKS
PONTIAC        FAIR       6   1  81 W21       30.39R WCI -15
BLOOMINGTON    FAIR       3  -1  83 W21G28    30.39R WCI -18
DECATUR        FAIR       5  -1  76 W12       30.45R WCI -11
PEORIA         CLOUDY     4  -3  73 W18G26    30.45R WCI -16
LACON*         FAIR       5  -2  73 W12G23    30.42R WCI -11
LINCOLN*       CLOUDY     6   0  75 W7        30.46R WCI  -5
SPRINGFIELD    FAIR       5   0  79 W7        30.48R WCI  -7
TAYLORVILLE    FAIR       6  -3  68 W12       30.48R WCI -10
$$

ILZ033-039-045-046-055>057-062-063-160200-
EAST-CENTRAL ILLINOIS

CITY           SKY/WX    TMP DP  RH WIND       PRES   REMARKS
CHAMPAIGN      CLOUDY     4   0  83 W14       30.42R WCI -14
DANVILLE*      CLOUDY     7   0  74 W18G24    30.38R WCI -13
RANTOUL*       FAIR       6   1  81 W9        30.41R WCI  -8
MATTOON        FAIR       5  -1  76 W13       30.43R WCI -12
PARIS*         CLOUDY     9   2  75 W16       30.44R WCI  -9
$$

ILZ079-100>102-160200-
SOUTHWEST ILLINOIS

CITY           SKY/WX    TMP DP  RH WIND       PRES   REMARKS
ALTON          MOCLDY     9   0  66 W10       30.52R WCI  -6
BELLEVILLE     CLOUDY    13   1  59 NW12      30.51R WCI  -1
CAHOKIA*       FAIR      12   0  58 NW14G24   30.54R WCI  -3
SPARTA*        FAIR      14   4  64 NW10G21   30.52R WCI   1
$$

ILZ064>066-069>071-074>076-080>082-084>086-088>090-092>094-160200-
SOUTH-CENTRAL ILLINOIS

CITY           SKY/WX    TMP DP  RH WIND       PRES   REMARKS
CARBONDALE     CLOUDY    19   8  62 NW14G26   30.49R WCI   6
CAIRO*         CLOUDY    23  20  91 N9        30.47R WCI  13
EFFINGHAM*     FAIR      12   4  71 W10       30.49R WCI  -1
MARION         CLOUDY    19   9  63 NW12      30.48R WCI   7
MT. VERNON     FAIR      15   5  64 VRB5      30.49R WCI   8
CENTRALIA*     FAIR      16   8  70 NW12      30.48R WCI   2
SALEM*         CLOUDY    16   4  61 NW14      30.48R WCI   1
METROPOLIS*    LGT SNOW  23  21  91 N8        30.46R WCI  14
$$

ILZ067-068-072-073-078-083-087-091-160200-
SOUTHEAST ILLINOIS

CITY           SKY/WX    TMP DP  RH WIND       PRES   REMARKS
LAWRENCEVILLE  FAIR      16   8  71 NW12      30.47R WCI   3
FLORA*         FAIR      17   7  66 NW15G21   29.93F WCI   2
FAIRFIELD*     FAIR      17   8  65 CALM      30.47R
HARRISBURG*    CLOUDY    19   9  63 NW13      30.47R WCI   7
ROBINSON*      MOCLDY    14   7  74 W12       30.47R WCI   0
CARMI*         CLOUDY    18  10  71 NW13      30.46R WCI   5
$$

ABBREVIATIONS USED IN REMARKS
   TC - TEMPERATURE IN CELSIUS
  WCI - WIND CHILL INDEX
   HX - HEAT INDEX
  VSB - VISIBILITY
$$





USA.gov is the U.S. government's official web portal to all federal, state and local government web resources and services.